| time (UTC) | temp F | wind direction | speed MPH | gust MPH | rain 1hr in | rain 24hr in | rain mn in | humidity % | barometer mb |
| 20260507081618 | 80 | 315 | 1.0 | 3.0 | 0.00 | 0.00 | 0.00 | 31 | 1007.0 |
| 20260507080618 | 80 | 315 | 0.0 | 0.0 | 0.00 | 0.00 | 0.00 | 30 | 1007.0 |
| 20260507075618 | 80 | 315 | 2.0 | 3.0 | 0.00 | 0.00 | 0.00 | 30 | 1007.0 |
| 20260507074619 | 81 | 315 | 2.0 | 5.0 | 0.00 | 0.00 | 0.00 | 30 | 1007.0 |
| 20260507073619 | 82 | 329 | 3.0 | 3.0 | 0.00 | 0.00 | 0.00 | 30 | 1007.0 |
| 20260507072619 | 82 | 315 | 2.0 | 3.0 | 0.00 | 0.00 | 0.00 | 30 | 1007.0 |
| 20260507071620 | 81 | 315 | 3.0 | 3.0 | 0.00 | 0.00 | 0.00 | 30 | 1007.0 |
| 20260507070619 | 81 | 329 | 1.0 | 6.0 | 0.00 | 0.00 | 0.00 | 30 | 1007.0 |
| 20260507065620 | 81 | 315 | 1.0 | 3.0 | 0.00 | 0.00 | 0.00 | 30 | 1007.0 |
| 20260507064618 | 81 | 315 | 2.0 | 7.0 | 0.00 | 0.00 | 0.00 | 29 | 1007.0 |
| 20260507063618 | 82 | 315 | 2.0 | 7.0 | 0.00 | 0.00 | 0.00 | 29 | 1007.0 |
| 20260507062618 | 82 | 315 | 6.0 | 12.0 | 0.00 | 0.00 | 0.00 | 29 | 1007.0 |
| 20260507061618 | 82 | 315 | 3.0 | 6.0 | 0.00 | 0.00 | 0.00 | 27 | 1007.0 |
| 20260507060618 | 83 | 315 | 3.0 | 3.0 | 0.00 | 0.00 | 0.00 | 26 | 1007.0 |
| 20260507055619 | 85 | 225 | 0.0 | 0.0 | 0.00 | 0.00 | 0.00 | 25 | 1007.0 |
| 20260507054620 | 84 | 296 | 0.0 | 2.0 | 0.00 | 0.00 | 0.00 | 23 | 1008.0 |
| 20260507053620 | 82 | 187 | 7.0 | 10.0 | 0.00 | 0.00 | 0.00 | 24 | 1006.0 |
| 20260507052620 | 82 | 197 | 5.0 | 14.0 | 0.00 | 0.00 | 0.00 | 24 | 1006.0 |
| 20260507051619 | 82 | 195 | 7.0 | 8.0 | 0.00 | 0.00 | 0.00 | 24 | 1007.0 |
| 20260507050619 | 81 | 199 | 5.0 | 6.0 | 0.00 | 0.00 | 0.00 | 26 | 1007.0 |
| 20260507045618 | 81 | 202 | 7.0 | 9.0 | 0.00 | 0.00 | 0.00 | 25 | 1007.0 |
| 20260507044618 | 81 | 192 | 5.0 | 8.0 | 0.00 | 0.00 | 0.00 | 27 | 1007.0 |
| 20260507043618 | 80 | 193 | 9.0 | 10.0 | 0.00 | 0.00 | 0.00 | 27 | 1008.0 |
| 20260507042618 | 81 | 180 | 6.0 | 8.0 | 0.00 | 0.00 | 0.00 | 27 | 1008.0 |
| 20260507041618 | 81 | 186 | 8.0 | 10.0 | 0.00 | 0.00 | 0.00 | 27 | 1008.0 |
| 20260507040618 | 81 | 191 | 7.0 | 6.0 | 0.00 | 0.00 | 0.00 | 27 | 1008.0 |
| 20260507035618 | 81 | 180 | 8.0 | 13.0 | 0.00 | 0.00 | 0.00 | 27 | 1008.0 |
| 20260507034619 | 81 | 189 | 7.0 | 8.0 | 0.00 | 0.00 | 0.00 | 26 | 1009.0 |
| 20260507033619 | 81 | 181 | 7.0 | 9.0 | 0.00 | 0.00 | 0.00 | 26 | 1009.0 |
| 20260507032618 | 81 | 207 | 6.0 | 8.0 | 0.00 | 0.00 | 0.00 | 28 | 1009.0 |
| 20260507031620 | 80 | 197 | 6.0 | 8.0 | 0.00 | 0.00 | 0.00 | 30 | 1009.0 |
| 20260507030620 | 80 | 189 | 6.0 | 7.0 | 0.00 | 0.00 | 0.00 | 29 | 1009.0 |
| 20260507025620 | 80 | 192 | 3.0 | 5.0 | 0.00 | 0.00 | 0.00 | 30 | 1009.0 |
| 20260507024618 | 81 | 180 | 5.0 | 9.0 | 0.00 | 0.00 | 0.00 | 29 | 1009.0 |
| 20260507023618 | 81 | 209 | 2.0 | 7.0 | 0.00 | 0.00 | 0.00 | 29 | 1009.0 |
| 20260507022620 | 81 | 199 | 5.0 | 6.0 | 0.00 | 0.00 | 0.00 | 28 | 1009.0 |
| 20260507021618 | 82 | 180 | 2.0 | 5.0 | 0.00 | 0.00 | 0.00 | 27 | 1009.0 |
| 20260507020618 | 81 | 188 | 3.0 | 5.0 | 0.00 | 0.00 | 0.00 | 28 | 1009.0 |
| 20260507015619 | 80 | 193 | 1.0 | 2.0 | 0.00 | 0.00 | 0.00 | 30 | 1009.0 |
| 20260507014619 | 79 | 235 | 1.0 | 2.0 | 0.00 | 0.00 | 0.00 | 30 | 1010.0 |
| 20260507013619 | 78 | 199 | 6.0 | 6.0 | 0.00 | 0.00 | 0.00 | 30 | 1010.0 |
| 20260507012619 | 79 | 180 | 2.0 | 5.0 | 0.00 | 0.00 | 0.00 | 30 | 1010.0 |
| 20260507011619 | 78 | 180 | 3.0 | 5.0 | 0.00 | 0.00 | 0.00 | 29 | 1010.0 |
| 20260507010619 | 83 | 258 | 2.0 | 3.0 | 0.00 | 0.00 | 0.00 | 24 | 1010.0 |
| 20260507005619 | 83 | 0 | 0.0 | 0.0 | 0.00 | 0.00 | 0.00 | 29 | 1010.0 |
| 20260507004619 | 80 | 180 | 0.0 | 0.0 | 0.00 | 0.00 | 0.00 | 31 | 1010.0 |
| 20260507003619 | 77 | 180 | 1.0 | 2.0 | 0.00 | 0.00 | 0.00 | 32 | 1010.0 |
| 20260507002620 | 75 | 180 | 0.0 | 1.0 | 0.00 | 0.00 | 0.00 | 33 | 1010.0 |
| 20260507001618 | 74 | 0 | 0.0 | 1.0 | 0.00 | 0.00 | 0.00 | 34 | 1010.0 |
| 20260507000619 | 74 | 180 | 0.0 | 0.0 | 0.00 | 0.00 | 0.00 | 34 | 1010.0 |
| 20260506235620 | 74 | 180 | 0.0 | 0.0 | 0.00 | 0.00 | 0.00 | 33 | 1010.0 |
| 20260506234620 | 74 | 180 | 0.0 | 0.0 | 0.00 | 0.00 | 0.00 | 34 | 1010.0 |
| 20260506233620 | 74 | 180 | 0.0 | 0.0 | 0.00 | 0.00 | 0.00 | 37 | 1010.0 |
| 20260506232619 | 71 | 180 | 0.0 | 0.0 | 0.00 | 0.00 | 0.00 | 46 | 1010.0 |
| 20260506231619 | 67 | 180 | 0.0 | 0.0 | 0.00 | 0.00 | 0.00 | 50 | 1010.0 |
| 20260506230620 | 65 | 180 | 0.0 | 0.0 | 0.00 | 0.00 | 0.00 | 50 | 1010.0 |
| 20260506225620 | 64 | 180 | 0.0 | 0.0 | 0.00 | 0.00 | 0.00 | 51 | 1010.0 |
| 20260506224618 | 64 | 198 | 1.0 | 2.0 | 0.00 | 0.00 | 0.00 | 53 | 1010.0 |
| 20260506223618 | 63 | 180 | 1.0 | 0.0 | 0.00 | 0.00 | 0.00 | 54 | 1010.0 |
| 20260506222619 | 63 | 270 | 0.0 | 0.0 | 0.00 | 0.00 | 0.00 | 57 | 1010.0 |
| 20260506221618 | 62 | 270 | 0.0 | 0.0 | 0.00 | 0.00 | 0.00 | 58 | 1010.0 |
| 20260506220620 | 62 | 270 | 0.0 | 0.0 | 0.00 | 0.00 | 0.00 | 59 | 1010.0 |
| 20260506215620 | 61 | 180 | 0.0 | 0.0 | 0.00 | 0.00 | 0.00 | 60 | 1010.0 |
| 20260506214618 | 61 | 180 | 0.0 | 0.0 | 0.00 | 0.00 | 0.00 | 60 | 1010.0 |
| 20260506213620 | 61 | 180 | 0.0 | 0.0 | 0.00 | 0.00 | 0.00 | 61 | 1010.0 |
| 20260506212619 | 60 | 180 | 0.0 | 0.0 | 0.00 | 0.00 | 0.00 | 62 | 1010.0 |
| 20260506211619 | 60 | 180 | 0.0 | 0.0 | 0.00 | 0.00 | 0.00 | 62 | 1009.0 |
| 20260506210619 | 59 | 315 | 0.0 | 0.0 | 0.00 | 0.00 | 0.00 | 61 | 1010.0 |
| 20260506205619 | 59 | 315 | 0.0 | 0.0 | 0.00 | 0.00 | 0.00 | 62 | 1010.0 |
| 20260506204620 | 58 | 315 | 0.0 | 0.0 | 0.00 | 0.00 | 0.00 | 61 | 1009.0 |
| 20260506203620 | 58 | 315 | 0.0 | 0.0 | 0.00 | 0.00 | 0.00 | 61 | 1009.0 |
| 20260506202619 | 58 | 315 | 0.0 | 0.0 | 0.00 | 0.00 | 0.00 | 61 | 1009.0 |
| 20260506201619 | 58 | 315 | 0.0 | 0.0 | 0.00 | 0.00 | 0.00 | 61 | 1010.0 |
| 20260506200619 | 58 | 315 | 0.0 | 0.0 | 0.00 | 0.00 | 0.00 | 61 | 1010.0 |
| 20260506195619 | 57 | 315 | 0.0 | 0.0 | 0.00 | 0.00 | 0.00 | 61 | 1010.0 |
| 20260506194619 | 57 | 315 | 0.0 | 0.0 | 0.00 | 0.00 | 0.00 | 61 | 1009.0 |
| 20260506193619 | 57 | 315 | 0.0 | 0.0 | 0.00 | 0.00 | 0.00 | 60 | 1009.0 |
| 20260506192620 | 56 | 315 | 0.0 | 0.0 | 0.00 | 0.00 | 0.00 | 60 | 1009.0 |
| 20260506191619 | 57 | 315 | 0.0 | 0.0 | 0.00 | 0.00 | 0.00 | 60 | 1009.0 |
| 20260506190619 | 56 | 315 | 0.0 | 0.0 | 0.00 | 0.00 | 0.00 | 59 | 1009.0 |
| 20260506185620 | 57 | 315 | 0.0 | 0.0 | 0.00 | 0.00 | 0.00 | 59 | 1009.0 |
| 20260506184620 | 57 | 315 | 0.0 | 0.0 | 0.00 | 0.00 | 0.00 | 58 | 1009.0 |
| 20260506183620 | 57 | 315 | 0.0 | 0.0 | 0.00 | 0.00 | 0.00 | 58 | 1009.0 |
| 20260506182618 | 57 | 315 | 0.0 | 0.0 | 0.00 | 0.00 | 0.00 | 57 | 1009.0 |
| 20260506181618 | 57 | 315 | 0.0 | 0.0 | 0.00 | 0.00 | 0.00 | 57 | 1010.0 |
| 20260506180619 | 57 | 315 | 0.0 | 0.0 | 0.00 | 0.00 | 0.00 | 56 | 1010.0 |
| 20260506175619 | 57 | 315 | 0.0 | 0.0 | 0.00 | 0.00 | 0.00 | 56 | 1010.0 |
| 20260506174619 | 57 | 315 | 0.0 | 0.0 | 0.00 | 0.00 | 0.00 | 55 | 1010.0 |
| 20260506173619 | 57 | 315 | 0.0 | 0.0 | 0.00 | 0.00 | 0.00 | 55 | 1010.0 |
| 20260506172619 | 58 | 315 | 0.0 | 0.0 | 0.00 | 0.00 | 0.00 | 55 | 1010.0 |
| 20260506171620 | 58 | 315 | 0.0 | 0.0 | 0.00 | 0.00 | 0.00 | 54 | 1010.0 |
| 20260506170620 | 58 | 315 | 0.0 | 0.0 | 0.00 | 0.00 | 0.00 | 54 | 1010.0 |
| 20260506165620 | 58 | 315 | 0.0 | 0.0 | 0.00 | 0.00 | 0.00 | 53 | 1010.0 |
| 20260506164620 | 58 | 315 | 0.0 | 0.0 | 0.00 | 0.00 | 0.00 | 53 | 1011.0 |
| 20260506163620 | 59 | 315 | 0.0 | 0.0 | 0.00 | 0.00 | 0.00 | 53 | 1011.0 |
| 20260506162620 | 59 | 315 | 0.0 | 0.0 | 0.00 | 0.00 | 0.00 | 52 | 1011.0 |
| 20260506161620 | 59 | 315 | 0.0 | 0.0 | 0.00 | 0.00 | 0.00 | 52 | 1011.0 |
| 20260506160620 | 59 | 315 | 0.0 | 0.0 | 0.00 | 0.00 | 0.00 | 52 | 1011.0 |
| 20260506155618 | 60 | 315 | 0.0 | 0.0 | 0.00 | 0.00 | 0.00 | 51 | 1011.0 |
| 20260506154619 | 60 | 315 | 0.0 | 0.0 | 0.00 | 0.00 | 0.00 | 51 | 1011.0 |
| 20260506153619 | 60 | 315 | 0.0 | 0.0 | 0.00 | 0.00 | 0.00 | 51 | 1011.0 |
| 20260506152619 | 60 | 315 | 0.0 | 0.0 | 0.00 | 0.00 | 0.00 | 50 | 1011.0 |
| 20260506151619 | 60 | 315 | 0.0 | 0.0 | 0.00 | 0.00 | 0.00 | 49 | 1011.0 |
| 20260506150619 | 60 | 315 | 0.0 | 0.0 | 0.00 | 0.00 | 0.00 | 49 | 1011.0 |
| 20260506145619 | 60 | 315 | 0.0 | 0.0 | 0.00 | 0.00 | 0.00 | 48 | 1011.0 |
| 20260506144620 | 61 | 315 | 0.0 | 0.0 | 0.00 | 0.00 | 0.00 | 48 | 1011.0 |
| 20260506143620 | 61 | 315 | 0.0 | 0.0 | 0.00 | 0.00 | 0.00 | 47 | 1011.0 |
| 20260506142620 | 61 | 280 | 0.0 | 0.0 | 0.00 | 0.00 | 0.00 | 46 | 1011.0 |
| 20260506141620 | 62 | 315 | 1.0 | 1.0 | 0.00 | 0.00 | 0.00 | 45 | 1010.0 |
| 20260506140620 | 62 | 315 | 1.0 | 1.0 | 0.00 | 0.00 | 0.00 | 45 | 1011.0 |
| 20260506135618 | 62 | 315 | 1.0 | 1.0 | 0.00 | 0.00 | 0.00 | 45 | 1011.0 |
| 20260506134619 | 63 | 315 | 1.0 | 1.0 | 0.00 | 0.00 | 0.00 | 44 | 1011.0 |
| 20260506133619 | 63 | 315 | 0.0 | 1.0 | 0.00 | 0.00 | 0.00 | 44 | 1012.0 |
| 20260506132620 | 63 | 315 | 0.0 | 0.0 | 0.00 | 0.00 | 0.00 | 43 | 1012.0 |
| 20260506131619 | 63 | 315 | 0.0 | 0.0 | 0.00 | 0.00 | 0.00 | 42 | 1012.0 |
| 20260506130619 | 63 | 315 | 1.0 | 2.0 | 0.00 | 0.00 | 0.00 | 41 | 1012.0 |
| 20260506125620 | 64 | 315 | 0.0 | 1.0 | 0.00 | 0.00 | 0.00 | 41 | 1012.0 |
| 20260506124619 | 64 | 315 | 0.0 | 0.0 | 0.00 | 0.00 | 0.00 | 40 | 1012.0 |
| 20260506123619 | 64 | 315 | 1.0 | 1.0 | 0.00 | 0.00 | 0.00 | 40 | 1012.0 |
| 20260506122619 | 65 | 315 | 2.0 | 2.0 | 0.00 | 0.00 | 0.00 | 39 | 1012.0 |
| 20260506121619 | 65 | 315 | 0.0 | 0.0 | 0.00 | 0.00 | 0.00 | 38 | 1011.0 |
| 20260506120619 | 65 | 315 | 0.0 | 0.0 | 0.00 | 0.00 | 0.00 | 37 | 1011.0 |
| 20260506115619 | 66 | 315 | 2.0 | 1.0 | 0.00 | 0.00 | 0.00 | 37 | 1011.0 |
| 20260506114619 | 66 | 315 | 0.0 | 0.0 | 0.00 | 0.00 | 0.00 | 37 | 1011.0 |
| 20260506113619 | 66 | 315 | 0.0 | 0.0 | 0.00 | 0.00 | 0.00 | 36 | 1010.0 |
| 20260506112619 | 67 | 315 | 2.0 | 2.0 | 0.00 | 0.00 | 0.00 | 36 | 1010.0 |
| 20260506111619 | 67 | 315 | 1.0 | 2.0 | 0.00 | 0.00 | 0.00 | 35 | 1011.0 |
| 20260506110619 | 67 | 315 | 1.0 | 2.0 | 0.00 | 0.00 | 0.00 | 35 | 1011.0 |
| 20260506105620 | 67 | 315 | 1.0 | 5.0 | 0.00 | 0.00 | 0.00 | 34 | 1011.0 |
| 20260506104619 | 68 | 315 | 2.0 | 0.0 | 0.00 | 0.00 | 0.00 | 33 | 1011.0 |
| 20260506103619 | 69 | 315 | 2.0 | 0.0 | 0.00 | 0.00 | 0.00 | 33 | 1012.0 |
| 20260506102619 | 69 | 315 | 2.0 | 0.0 | 0.00 | 0.00 | 0.00 | 33 | 1012.0 |
| 20260506101619 | 70 | 315 | 2.0 | 5.0 | 0.00 | 0.00 | 0.00 | 32 | 1011.0 |
| 20260506100619 | 70 | 315 | 3.0 | 5.0 | 0.00 | 0.00 | 0.00 | 31 | 1010.0 |
| 20260506095620 | 71 | 315 | 2.0 | 5.0 | 0.00 | 0.00 | 0.00 | 29 | 1010.0 |
| 20260506094619 | 72 | 315 | 2.0 | 3.0 | 0.00 | 0.00 | 0.00 | 27 | 1010.0 |
| 20260506093620 | 72 | 315 | 1.0 | 5.0 | 0.00 | 0.00 | 0.00 | 26 | 1011.0 |
| 20260506092620 | 73 | 315 | 2.0 | 6.0 | 0.00 | 0.00 | 0.00 | 25 | 1011.0 |
| 20260506091620 | 74 | 315 | 2.0 | 8.0 | 0.00 | 0.00 | 0.00 | 24 | 1011.0 |
| 20260506090620 | 74 | 315 | 5.0 | 6.0 | 0.00 | 0.00 | 0.00 | 23 | 1011.0 |
| 20260506085620 | 75 | 319 | 6.0 | 5.0 | 0.00 | 0.00 | 0.00 | 22 | 1011.0 |
| 20260506084620 | 76 | 324 | 3.0 | 3.0 | 0.00 | 0.00 | 0.00 | 22 | 1010.0 |
| 20260506083618 | 76 | 315 | 3.0 | 8.0 | 0.00 | 0.00 | 0.00 | 22 | 1011.0 |
| 20260506082619 | 77 | 316 | 5.0 | 9.0 | 0.00 | 0.00 | 0.00 | 21 | 1011.0 |